Regional Weather Roundup
Issued by NWS

Home | Current Version | Previous Version | Graphics & Text | Print | Product List | Glossary Off
Versions: 1 2 3 4 5 6 7 8 9 10 11 12 13 14 15 16 17 18 19 20 21 22 23 24 25 26 27 28 29 30 31 32 33 34 35 36 37 38 39 40 41 42 43 44 45 46 47 48 49 50

000
ASUS43 KDTX 271310
RWRMI
MICHIGAN HOURLY REGIONAL WEATHER ROUNDUP
NATIONAL WEATHER SERVICE DETROIT/PONTIAC MI
900 AM EDT FRI MAY 27 2016

NOTE: "FAIR" INDICATES FEW OR NO CLOUDS BELOW 12,000 FEET WITH NO
SIGNIFICANT WEATHER AND/OR OBSTRUCTION TO VISIBILITY.

MIZ047>049-052>055-059>063-066>070-074>076-081>083-271400-
SOUTHEAST LOWER MICHIGAN

CITY           SKY/WX    TMP DP  RH WIND       PRES   REMARKS
ADRIAN         MOSUNNY   69  63  81 SW7       29.99S
ALMA           MOSUNNY   68  66  94 SW6       29.96S
ANN ARBOR      SUNNY     69  64  84 S3        29.98S
BAD AXE        SUNNY     72  66  81 NE3       29.97S
CARO           SUNNY     71  65  81 CALM      29.96F
DETROIT CITY   MOSUNNY   74  63  68 SW8       29.97S
DETROIT        PTSUNNY   72  63  73 SW3       29.98F
FLINT          MOSUNNY   74  63  68 CALM      29.97S
GROSSE ILE     MOSUNNY   72  64  78 S5        29.97F
HILLSDALE      SUNNY     69  62  78 S5        29.99R
HOWELL         MOSUNNY   71  65  80 CALM      29.98S

CITY           SKY/WX    TMP DP  RH WIND       PRES   REMARKS
JACKSON        SUNNY     71  65  81 S3        29.97S
LAMBERTVILLE   MOSUNNY   72  64  76 S3        29.99F
LANSING        PTSUNNY   71  64  78 S6        29.97S
LAPEER         FAIR      72  62  69 W3        29.98S
MASON          SUNNY     70  64  80 CALM      29.96F
MONROE         MOSUNNY   71  65  82 S7        29.98F
MT. CLEMENS    MOSUNNY   76  66  70 SW6       29.96F
PONTIAC        MOSUNNY   72  64  76 W6        29.97F
PORT HOPE        N/A     58  58 100 N6        29.95R
PORT HURON     MOSUNNY   73  66  78 CALM      29.97S
TRI CITIES     MOSUNNY   74  64  71 CALM      29.96S
MIDLAND        FAIR      72  64  77 CALM      29.95S
TROY           MOSUNNY   73  65  75 SW6       29.99S
SAGINAW HB     MOSUNNY   72  63  73 CALM      29.95S
$$
MIZ043>046-050>051-056>058-064>065-071>073-077>080-271400-
SOUTHWEST LOWER MICHIGAN

CITY           SKY/WX    TMP DP  RH WIND       PRES   REMARKS
BATTLE CREEK   MOSUNNY   68  63  84 S6        29.97R
BENTON HARBOR  CLOUDY    71  63  75 S12       29.92S
BIG RAPIDS     CLOUDY    65  65  97 CALM      29.94S
COLDWATER      PTSUNNY   70  63  79 SW6       29.98R
FREMONT        FAIR      67  67 100 S5        29.93R
HOLLAND        MOSUNNY   71  65  81 S5        29.93R
GRAND RAPIDS   PTSUNNY   73  65  75 S6        29.94R
IONIA          FAIR      70  63  79 S3        29.95R
KALAMAZOO      PTSUNNY   71  64  78 S10       29.96R
LUDINGTON      SUNNY     68  64  88 SE5       29.91R
MARSHALL       MOSUNNY   70  64  81 CALM      29.96S
MOUNT PLEASANT MOSUNNY   68  66  93 CALM      29.95S
MUSKEGON       CLOUDY    71  63  75 S9        29.92R
SOUTH HAVEN    CLOUDY    71  66  83 S6        29.92F
$$
MIZ016>042-271400-
NORTHERN LOWER MICHIGAN

CITY           SKY/WX    TMP DP  RH WIND       PRES   REMARKS
ALPENA         FOG       61  60  97 S3        29.97R VSB 1/2
BEAVER ISLAND  SUNNY     62  62  97 SE5       29.93S
BELLAIRE       SUNNY     67  63  87 CALM      29.93S
CADILLAC       SUNNY     70  64  80 CALM      29.94S
CHARLEVOIX     SUNNY     63  62  97 E6        29.95F
FRANKFORT      SUNNY     70  64  81 CALM      29.90S
GAYLORD        SUNNY     68  62  81 CALM      29.95F
GRAYLING       SUNNY     67  62  83 E3        29.95F
HARBOR SPRINGS SUNNY     64  62  93 NE3       29.93F
HOUGHTON LAKE  SUNNY     69  62  78 SE3       29.96R
MANISTEE       SUNNY     66  61  82 E6        29.91F
OSCODA         CLOUDY    61  57  89 E5        29.96S
PELLSTON       SUNNY     63  58  83 E3        29.94S
ROGERS CITY    SUNNY     62  60  96 SE3       29.97S
TRAVERSE CITY  MOSUNNY   66  58  75 NE3       29.91S
$$
MIZ007>008-015-271400-
EASTERN UPPER MICHIGAN

CITY           SKY/WX    TMP DP  RH WIND       PRES   REMARKS
KINROSS          N/A     57  57 100 SE3       29.95R VSB 1
MACKINAC ISLAN SUNNY     59  59 100 CALM      29.94R
NEWBERRY       MOSUNNY   59  58  97 SE3       29.93S
S. S. MARIE    FOG       57  56  96 CALM      29.94S VSB 1/4
MUNISING         N/A     62  59  90 S5        29.90R
$$
MIZ004>006-011>014-085-271400-
CENTRAL UPPER MICHIGAN

CITY           SKY/WX    TMP DP  RH WIND       PRES   REMARKS
MANISTIQUE     FOG       54  54  97 CALM      29.93S VSB<1/4
ESCANABA       CLOUDY    55  54  94 CALM      29.91F
MENOMINEE      SUNNY     64  58  80 E6        29.89F
SAWYER-GWINN   FOG       57  57 100 CALM      29.91S VSB 1/2
$$
MIZ001>003-009>011-084-271400-
WESTERN UPPER MICHIGAN

CITY           SKY/WX    TMP DP  RH WIND       PRES   REMARKS
IRON MOUNTAIN  SUNNY     65  59  81 CALM      29.88F
HOUGHTON       FOG       56  55  97 CALM      29.89S VSB 1/4
COPPER HARBOR    N/A     50  49  96 CALM      29.88F
IRONWOOD       CLOUDY    57  57 100 CALM      29.86S
$$

ABBREVIATIONS USED IN REMARKS
   TC - TEMPERATURE IN CELSIUS
  WCI - WIND CHILL INDEX
   HX - HEAT INDEX
  VSB - VISIBILITY




USA.gov is the U.S. government's official web portal to all federal, state and local government web resources and services.